www.pogodaiklimat.ru

Погода и климат >> Архив погоды >> Россия >> Краснодарский край >> Сочи аэропорт (Адлер)


ПОГОДА в Сочи аэропорт (Адлере)

  • Прогноз погоды в Сочи аэропорт (Адлере)
  • Монитор погоды в Сочи аэропорт (Адлере)

АРХИВ ПОГОДЫ в Сочи аэропорт (Адлере)

Время (UTC), дата Ветер
(напр.,м/с)
 
Видим.   Явления Облачность Т
(С)
Тd
(С)
f
(%)
Тe
(С)
Тes
(С)
Комфортность P
(гПа)
Po
(гПа)
Тmin
(С)
Tmax
(С)
R
(мм)
R24
(мм)
S
(см)
18 8.09 СВ 2 4000 м ясно +21.1 +18.6 86 +25 +25 комфорт 1015.0 1013.2
21 8.09 СВ 3 4000 м 4/0
[Ac trans]
+19.2 +16.2 83 +21 +21 комфорт 1015.1 1013.3
00 9.09 СВ 4 4000 м ясно +18.9 +14.7 77 +20 +20 1014.5 1012.7
03 9.09 СВ 6 20 км 3/0
[Ac trans]
+17.8 +10.3 61 +17 +17 1014.4 1012.6 +17.5
06 9.09 СВ 4 20 км ясно +23.4 +12.8 51 +26 +30 жарко 1014.2 1012.5
09 9.09 З 4 20 км 1/1 1000 м
[Cu hum]
+26.8 +15.1 49 +30 +38 душно 1013.7 1012.0
12 9.09 З 3 10 км 3/3 1000 м
[Cu med, cong]
+26.8 +14.9 48 +29 +34 жарко 1014.0 1012.3
15 9.09 ЮЗ 1 10 км 8/8 1500 м
[Sc]
+24.8 +16.7 61 +28 +29 жарко 1013.7 1012.0 +27.7
18 9.09 В 3 4000 м 3/0
[Ac trans]
+22.0 +18.5 81 +27 +27 душно 1014.5 1012.8
21 9.09 С 1 4000 м 8/8 1500 м
[Sc]
+20.8 +16.9 78 +25 +25 комфорт 1014.3 1012.5
00 10.09 штиль 0 4000 м 3/3 1500 м
[Sc]
+19.9 +16.0 78 +22 +22 комфорт 1013.9 1012.1
03 10.09 В 4 20 км 5/0
[Ac trans]
+18.6 +14.5 77 +19 +19 1014.0 1012.2 +18.1
06 10.09 СВ 2 20 км 5/1 1000 м
[Cu med, cong Ac trans]
+24.0 +15.8 60 +27 +31 жарко 1014.7 1013.0
09 10.09 З 7-10
{10}
20 км 3/3 1500 м
[Cu med, cong]
+26.2 +16.1 54 +30 +32 душно 1014.3 1012.6
12 10.09 СЗ 6
{10}
10 км 3/3 1500 м
[Cb cap]
+26.0 +17.0 58 +30 +32 душно 1014.4 1012.7
15 10.09 СЗ 6 20 км гроза без осадков 8/3 1000 м
[Cb cap Ci ing]
+24.8 +16.7 61 +28 +29 жарко 1014.5 1012.8 +27.3
18 10.09 СВ 4 4000 м {гроза} 3/0
[Ac trans]
+21.0 +17.1 78 +25 +25 комфорт 1015.7 1013.9
21 10.09 В 4 4000 м 6/6 1080 м
[Sc]
+20.2 +16.0 77 +23 +23 комфорт 1016.5 1014.7
00 11.09 В 5 4000 м 6/6 1200 м
[Sc]
+19.8 +14.3 71 +22 +22 комфорт 1016.6 1014.8
03 11.09 В 5 20 км 4/4 1080 м
[Sc]
+18.3 +13.5 74 +18 +18 1017.2 1015.4 +17.9
06 11.09 В 3 20 км 1/1 600 м
[Cu hum]
+23.5 +15.6 61 +27 +31 душно 1017.8 1016.1
09 11.09 З 5 20 км 1/1 1000 м
[Cu hum]
+25.6 +17.8 62 +30 +36 душно 1017.9 1016.2
12 11.09 З 7-10
{11}
20 км 3/3 1000 м
[Cu med, cong]
+25.8 +17.5 60 +30 +31 душно 1017.7 1016.0
15 11.09 З 4
{10}
20 км 5/3 1000 м
[Cu hum Ac trans]
+25.0 +18.4 67 +30 +30 душно 1017.3 1015.6 +26.7
18 11.09 С 1
{10}
4000 м 3/0
[Ac trans]
+22.0 +19.2 84 +27 +27 душно 1018.3 1016.6
21 11.09 СВ 3 4000 м ясно +20.9 +18.0 83 +25 +25 комфорт 1019.0 1017.2
00 12.09 В 1 4000 м ясно +19.6 +16.1 80 +23 +23 комфорт 1018.7 1016.9
03 12.09 СВ 4 20 км 3/3 1000 м
[Sc]
+18.8 +13.5 71 +20 +20 1018.7 1016.9 +18.0
06 12.09 С 2 20 км 1/1 1000 м
[Sc]
+23.8 +15.5 60 +27 +32 жарко 1018.9 1017.1
09 12.09 З 6 20 км 1/1 1000 м
[Cu hum]
+25.8 +16.6 57 +29 +34 душно 1018.7 1017.0
12 12.09 З 6 20 км 1/1 1000 м
[Cu hum]
+25.6 +16.9 59 +29 +32 душно 1018.2 1016.5
15 12.09 З 5 20 км 3/3 1000 м
[Sc]
+24.2 +17.8 67 +28 +28 душно 1017.6 1015.9 +26.7
18 12.09 СВ 1 4000 м 3/0
[Ac trans]
+21.4 +17.7 79 +26 +26 душно 1017.9 1016.2
21 12.09 СВ 1 4000 м 3/0
[Ac trans]
+19.0 +17.4 90 +22 +22 комфорт 1017.9 1016.1
00 13.09 В 3 4000 м ясно +18.4 +15.1 81 +19 +19 1017.6 1015.8
03 13.09 штиль 0 20 км ясно +18.0 +14.0 77 +18 +18 1017.7 1015.9 +17.5
06 13.09 В 3 20 км ясно +23.6 +14.1 55 +26 +30 жарко 1018.7 1017.0
09 13.09 З 4 20 км 1/1 1000 м
[Cu hum]
+25.0 +15.1 54 +28 +35 жарко 1018.1 1016.4
12 13.09 З 5 20 км 1/1 1000 м
[Cu hum]
+25.4 +15.8 55 +29 +32 душно 1017.4 1015.7
15 13.09 З 6 20 км 1/1 1000 м
[Cu hum]
+24.4 +14.5 54 +27 +27 жарко 1016.6 1014.9 +26.2
18 13.09 СВ 3 4000 м 1/0
[Ac trans]
+20.0 +15.4 75 +23 +23 комфорт 1017.6 1015.8
21 13.09 СВ 3 4000 м ясно +18.5 +14.7 79 +19 +19 1017.7 1015.9
00 14.09 В 3 4000 м ясно +19.2 +13.6 70 +21 +21 комфорт 1017.3 1015.5
03 14.09 СВ 6 20 км ясно +17.9 +12.9 73 +17 +17 1017.9 1016.1 +16.8
06 14.09 СВ 3 20 км ясно +23.5 +13.7 54 +26 +30 жарко 1018.4 1016.7
09 14.09 З 4 20 км 1/1 1500 м
[Cu med, cong]
+25.4 +14.8 52 +28 +35 жарко 1017.8 1016.1
12 14.09 З 6 20 км 1/1 1500 м
[Cu med, cong]
+25.8 +17.4 60 +30 +32 душно 1016.9 1015.2
15 14.09 З 7
{10}
20 км 1/1 1000 м
[Cu med, cong]
+24.3 +17.4 65 +28 +28 душно 1016.3 1014.6 +26.7
18 14.09 С 1
{10}
4000 м ясно +20.0 +16.4 80 +24 +24 комфорт 1016.8 1015.0
21 14.09 СВ 4 4000 м ясно +17.9 +14.4 80 +18 +18 1017.1 1015.3
00 15.09 В 3 4000 м 8/0
[Ac trans]
+18.6 +14.1 75 +19 +19 1017.6 1015.8
03 15.09 СВ 5 20 км 5/0
[Ac trans]
+18.6 +12.9 69 +19 +19 1017.9 1016.1 +17.4
06 15.09 СВ 4 20 км 9/3 1500 м
[Cu Sc Ac trans Ci fib]
+22.0 +13.7 59 +25 +26 комфорт 1019.0 1017.3
09 15.09 Ю 3 20 км 10/4 600 м
[Cu med, cong Ci fib]
+24.4 +17.7 66 +28 +33 душно 1019.1 1017.4
12 15.09 ЮВ 3 20 км 10/3 840 м
[Cu med, cong Ci fib]
+25.0 +17.4 63 +29 +32 душно 1018.9 1017.2
15 15.09 ЮВ 3 20 км 10/3 600 м
[Cu med, cong Ac trans Ci fib]
+23.1 +18.4 75 +29 +29 очень
душно
1019.6 1017.9 +25.7

 

Местоположение метеостанции Сочи аэропорт (Адлер) (Краснодарский край, Россия): широта 43.43 долгота 39.90 высота над уровнем моря 15 м.

В архиве по умолчанию представлена погода в Сочи аэропорт (Адлере) за последнюю неделю. Архивные данные за месяц целиком и за предыдущие месяцы, начиная с января 2011 года, Вы можете получить, выбрав интересующий диапазон дат из раскрывающегося списка и нажав кнопку "Ввод!".


*Определитесь, кто Вы:
робот инопланетянин человек

Внимание! Время в таблицах - всемирное. Для получения местного времени необходимо прибавить поправку, которая равна 3 ч.

Смотрите также архив погоды в соседних городах и на ближайших метеорологических станциях:

Погода в Имеретинке (Краснодарский край, Россия) (5 км)
Погода в Сочи (Краснодарский край, Россия) (20 км)
Погода в Кепше (Краснодарский край, Россия) (24 км)
Погода в Красной Поляне (Краснодарский край, Россия) (37 км)
Погода в Горная Карусель 1500 (Краснодарский край, Россия) (40 км)
Погода в Горная Карусель 1000 (Краснодарский край, Россия) (40 км)
Погода на Кордоне Лаура (Краснодарский край, Россия) (44 км)
Погода в Солох Ауле (Краснодарский край, Россия) (47 км)
Погода в Кичмае (Краснодарский край, Россия) (54 км)
Погода в Гузерипле (Адыгея, Россия) (66 км)

Пояснения к столбцам:

Ветер - указаны скорость ветра в м/с - средняя за 10 мин, порывы в срок и между сроками (в фигурных скобках) и направление, откуда дует ветер: С - северный, СВ - северо-восточный, В - восточный, ЮВ - юго-восточный, Ю - южный, ЮЗ - юго-западный, З - западный, СЗ - северо-западный.
Видимость - горизонтальная дальность видимости в метрах или километрах. При видимости от 1 до 10 км при отсутствии осадков обычно наблюдается дымка, при ухудшении видимости до 1 км и менее - туман. В сухую погоду видимость может ухудшаться дымом, пылью или мглою.
Явления - указаны атмосферные явления, наблюдавшиеся в срок или в последний час перед сроком; фигурными скобками обозначены явления, наблюдавшиеся между сроками (за 1-3 часа до срока); квадратными скобками обозначены град или гололедные отложения с указанием их диаметра в мм.
Облачность - указаны через наклонную черту общая и нижняя облачность в баллах и высота нижней границы облаков в метрах; квадратными скобками обозначены формы облаков: Ci - перистые, Cs - перисто-слоистые, Cc - перисто-кучевые, Ac - высококучевые, As - высокослоистые, Sc - слоисто-кучевые, Ns - слоисто-дождевые, Cu - кучевые, Cb - кучево-дождевые. Подробнее классификацию облаков см. в Атласе облаков (PDF).
T - Температура воздуха - температура, измеренная на высоте 2 м над землей.
Td - Температура точки росы - температура, при понижении до которой содержащийся в воздухе водяной пар достигнет насыщения.
f - Относительная влажность воздуха - влажноcть воздуха, измеренная на высоте 2 м над землей.
Te - Эффективная температура - температура, которую ощущает одетый по сезону человек в тени. Характеристика душности погоды. При расчете учитывается влияние влажности воздуха и скорости ветра на теплоощущения человека.
Tes - Эффективная температура на солнце - температура, которую ощущает человек, с поправкой на солнечный нагрев. Характеристика знойности погоды. Зависит от высоты солнца над горизонтом, облачности и скорости ветра. Ночью, в пасмурную погоду, а также при ветре 12 м/с и более поправка равна нулю.
P - Атмосферное давление - приведенное к уровню моря атмосферное давление.
Po - Атмосферное давление - измеренное на уровне метеостанции атмосферное давление.
Tmin - Минимальная температура - минимум температуры воздуха на высоте 2 м над землей.
Tmax - Максимальная температура - максимум температуры воздуха на высоте 2 м над землей.
R - Количество осадков - Количество выпавших осадков за период времени, мм. При наведении курсора мыши на число - период времени, за который выпало указанное количество осадков.
R24 - Количество осадков - Количество выпавших осадков за 24 часа, мм.
S - Снежный покров - Высота снежного покрова, см. При наведении курсора мыши на число - состояние снежного покрова и степень покрытия местности в баллах.